Time,TemperatureF,DewpointF,PressureIn,WindDirection,WindDirectionDegrees,WindSpeedMPH,WindSpeedGustMPH,Humidity,HourlyPrecipIn,Conditions,Clouds,dailyrainin,SoftwareType,DateUTC
2013-04-08 00:00:00,50.9,41.1,29.91,WSW,248,2.2,2.2,69,0.00,CLR,,0.00,WeatherDisplay:10.37,2013-04-08 04:00:00,
2013-04-08 00:05:00,50.7,41.3,29.91,SSE,158,1.1,1.1,70,0.00,CLR,,0.00,WeatherDisplay:10.37,2013-04-08 04:05:00,
2013-04-08 00:10:00,50.5,41.1,29.91,SW,225,2.3,2.3,70,0.00,CLR,,0.00,WeatherDisplay:10.37,2013-04-08 04:10:00,
2013-04-08 00:15:00,50.5,41.1,29.91,SW,225,2.6,2.6,70,0.00,CLR,,0.00,WeatherDisplay:10.37,2013-04-08 04:15:00,
2013-04-08 00:20:00,50.5,41.5,29.91,SSW,202,2.3,2.3,71,0.00,CLR,,0.00,WeatherDisplay:10.37,2013-04-08 04:20:00,
2013-04-08 00:25:00,50.5,41.5,29.91,SSE,158,1.1,1.1,71,0.00,CLR,,0.00,WeatherDisplay:10.37,2013-04-08 04:25:00,
2013-04-08 00:30:00,50.4,40.9,29.90,SSE,158,0.0,0.0,70,0.00,CLR,,0.00,WeatherDisplay:10.37,2013-04-08 04:30:00,
2013-04-08 00:35:00,50.0,41.0,29.90,SE,135,1.1,1.1,71,0.00,CLR,,0.00,WeatherDisplay:10.37,2013-04-08 04:35:00,
2013-04-08 00:40:00,50.0,41.0,29.90,SE,135,0.5,0.5,71,0.00,CLR,,0.00,WeatherDisplay:10.37,2013-04-08 04:40:00,
2013-04-08 00:45:00,49.8,40.8,29.90,ESE,112,2.2,2.2,71,0.00,CLR,,0.00,WeatherDisplay:10.37,2013-04-08 04:45:00,
2013-04-08 00:50:00,49.6,40.6,29.90,South,180,0.5,0.5,71,0.00,CLR,,0.00,WeatherDisplay:10.37,2013-04-08 04:50:00,
2013-04-08 00:55:00,49.6,41.0,29.90,SSE,158,0.0,0.0,72,0.00,CLR,,0.00,WeatherDisplay:10.37,2013-04-08 04:55:00,
2013-04-08 01:00:00,49.6,41.0,29.90,SE,135,0.7,0.7,72,0.00,CLR,,0.00,WeatherDisplay:10.37,2013-04-08 05:00:00,
2013-04-08 01:05:00,49.6,41.0,29.90,SSW,202,0.7,0.7,72,0.00,CLR,,0.00,WeatherDisplay:10.37,2013-04-08 05:05:00,
2013-04-08 01:10:00,49.6,41.0,29.90,SE,135,0.0,0.0,72,0.00,CLR,,0.00,WeatherDisplay:10.37,2013-04-08 05:10:00,
2013-04-08 01:15:00,49.6,41.0,29.90,SE,135,0.0,0.0,72,0.00,CLR,,0.00,WeatherDisplay:10.37,2013-04-08 05:15:00,
2013-04-08 01:20:00,49.6,41.0,29.90,SE,135,0.5,0.5,72,0.00,CLR,,0.00,WeatherDisplay:10.37,2013-04-08 05:20:00,
2013-04-08 01:25:00,49.5,40.8,29.90,SE,135,0.5,0.5,72,0.00,CLR,,0.00,WeatherDisplay:10.37,2013-04-08 05:25:00,
2013-04-08 01:30:00,49.3,40.6,29.89,SE,135,0.0,0.5,72,0.00,CLR,,0.00,WeatherDisplay:10.37,2013-04-08 05:30:00,
2013-04-08 01:36:00,49.1,40.5,29.89,SE,135,1.1,1.1,72,0.00,CLR,,0.00,WeatherDisplay:10.37,2013-04-08 05:36:00,
2013-04-08 01:41:00,48.9,40.6,29.89,SE,135,1.1,1.1,73,0.00,CLR,,0.00,WeatherDisplay:10.37,2013-04-08 05:41:00,
2013-04-08 01:46:00,48.9,40.6,29.89,SE,135,0.0,0.0,73,0.00,CLR,,0.00,WeatherDisplay:10.37,2013-04-08 05:46:00,
2013-04-08 01:51:00,48.7,40.5,29.89,SE,135,0.0,0.0,73,0.00,CLR,,0.00,WeatherDisplay:10.37,2013-04-08 05:51:00,
2013-04-08 01:56:00,48.6,40.3,29.89,SE,135,0.5,0.5,73,0.00,CLR,,0.00,WeatherDisplay:10.37,2013-04-08 05:56:00,
2013-04-08 02:01:00,48.4,40.5,29.89,South,180,1.1,0.0,74,0.00,CLR,,0.00,WeatherDisplay:10.37,2013-04-08 06:01:00,
2013-04-08 02:06:00,48.2,40.3,29.88,SSE,158,0.5,0.0,74,0.00,CLR,,0.00,WeatherDisplay:10.37,2013-04-08 06:06:00,
2013-04-08 02:11:00,48.4,40.8,29.88,West,270,3.6,3.6,75,0.00,CLR,,0.00,WeatherDisplay:10.37,2013-04-08 06:11:00,
2013-04-08 02:16:00,48.9,41.3,29.88,SE,135,0.0,0.0,75,0.00,CLR,,0.00,WeatherDisplay:10.37,2013-04-08 06:16:00,
2013-04-08 02:21:00,48.9,41.0,29.88,SE,135,0.2,0.2,74,0.00,CLR,,0.00,WeatherDisplay:10.37,2013-04-08 06:21:00,
2013-04-08 02:27:00,48.7,40.8,29.88,SE,135,0.2,0.2,74,0.00,CLR,,0.00,WeatherDisplay:10.37,2013-04-08 06:27:00,
2013-04-08 02:32:00,48.6,40.6,29.89,SE,135,0.0,0.0,74,0.00,CLR,,0.00,WeatherDisplay:10.37,2013-04-08 06:32:00,
2013-04-08 02:37:00,48.4,40.8,29.88,SE,135,0.0,0.5,75,0.00,CLR,,0.00,WeatherDisplay:10.37,2013-04-08 06:37:00,
2013-04-08 02:42:00,48.2,40.6,29.89,SE,135,0.0,0.0,75,0.00,CLR,,0.00,WeatherDisplay:10.37,2013-04-08 06:42:00,
2013-04-08 02:47:00,48.2,40.6,29.89,SE,135,0.0,0.0,75,0.00,CLR,,0.00,WeatherDisplay:10.37,2013-04-08 06:47:00,
2013-04-08 02:52:00,48.4,40.8,29.88,SE,135,0.0,0.0,75,0.00,CLR,,0.00,WeatherDisplay:10.37,2013-04-08 06:52:00,
2013-04-08 02:57:00,48.4,40.8,29.88,SE,135,0.0,0.0,75,0.00,CLR,,0.00,WeatherDisplay:10.37,2013-04-08 06:57:00,
2013-04-08 03:02:00,48.6,41.3,29.88,SE,135,0.5,0.5,76,0.00,CLR,,0.00,WeatherDisplay:10.37,2013-04-08 07:02:00,
2013-04-08 03:07:00,48.6,41.3,29.88,SE,135,0.5,0.5,76,0.00,CLR,,0.00,WeatherDisplay:10.37,2013-04-08 07:07:00,
2013-04-08 03:12:00,48.7,41.2,29.89,SE,135,0.0,0.0,75,0.00,CLR,,0.00,WeatherDisplay:10.37,2013-04-08 07:12:00,
2013-04-08 03:17:00,48.7,41.2,29.89,SE,135,0.0,0.0,75,0.00,CLR,,0.00,WeatherDisplay:10.37,2013-04-08 07:17:00,
2013-04-08 03:22:00,48.7,41.5,29.89,SE,135,0.0,0.0,76,0.00,CLR,,0.00,WeatherDisplay:10.37,2013-04-08 07:22:00,
2013-04-08 03:27:00,48.6,41.0,29.89,SE,135,0.2,0.2,75,0.00,CLR,,0.00,WeatherDisplay:10.37,2013-04-08 07:27:00,
2013-04-08 03:32:00,48.4,41.2,29.89,SE,135,0.0,0.0,76,0.00,CLR,,0.00,WeatherDisplay:10.37,2013-04-08 07:32:00,
2013-04-08 03:37:00,48.0,40.5,29.89,SE,135,0.0,0.0,75,0.00,CLR,,0.00,WeatherDisplay:10.37,2013-04-08 07:37:00,
2013-04-08 03:42:00,47.8,40.3,29.89,SE,135,0.2,0.2,75,0.00,CLR,,0.00,WeatherDisplay:10.37,2013-04-08 07:42:00,
2013-04-08 03:47:00,47.3,40.1,29.89,SE,135,0.5,0.5,76,0.00,CLR,,0.00,WeatherDisplay:10.37,2013-04-08 07:47:00,
2013-04-08 03:52:00,47.1,39.9,29.89,SE,135,1.1,1.1,76,0.00,CLR,,0.00,WeatherDisplay:10.37,2013-04-08 07:52:00,
2013-04-08 03:57:00,46.8,39.9,29.89,SE,135,0.0,0.0,77,0.00,CLR,,0.00,WeatherDisplay:10.37,2013-04-08 07:57:00,
2013-04-08 04:02:00,46.8,39.9,29.89,SE,135,0.0,0.0,77,0.00,CLR,,0.00,WeatherDisplay:10.37,2013-04-08 08:02:00,
2013-04-08 04:07:00,46.6,39.8,29.89,SE,135,0.0,0.5,77,0.00,CLR,,0.00,WeatherDisplay:10.37,2013-04-08 08:07:00,
2013-04-08 04:12:00,46.4,39.6,29.89,SE,135,0.0,0.0,77,0.00,CLR,,0.00,WeatherDisplay:10.37,2013-04-08 08:12:00,
2013-04-08 04:17:00,46.0,39.6,29.89,SE,135,0.0,0.0,78,0.00,CLR,,0.00,WeatherDisplay:10.37,2013-04-08 08:17:00,
2013-04-08 04:22:00,45.9,39.1,29.89,SE,135,0.0,0.0,77,0.00,CLR,,0.00,WeatherDisplay:10.37,2013-04-08 08:22:00,
2013-04-08 04:27:00,45.7,38.9,29.89,SE,135,0.0,0.0,77,0.00,CLR,,0.00,WeatherDisplay:10.37,2013-04-08 08:27:00,
2013-04-08 04:32:00,45.5,38.7,29.89,SE,135,0.0,0.0,77,0.00,CLR,,0.00,WeatherDisplay:10.37,2013-04-08 08:32:00,
2013-04-08 04:37:00,45.3,38.5,29.89,SE,135,0.0,0.0,77,0.00,CLR,,0.00,WeatherDisplay:10.37,2013-04-08 08:37:00,
2013-04-08 04:42:00,45.0,38.2,29.89,SE,135,0.0,0.0,77,0.00,CLR,,0.00,WeatherDisplay:10.37,2013-04-08 08:42:00,
2013-04-08 04:47:00,44.8,38.3,29.89,SE,135,0.0,0.0,78,0.00,CLR,,0.00,WeatherDisplay:10.37,2013-04-08 08:47:00,
2013-04-08 04:52:00,44.6,38.5,29.90,SE,135,0.0,0.0,79,0.00,CLR,,0.00,WeatherDisplay:10.37,2013-04-08 08:52:00,
2013-04-08 04:57:00,44.4,38.3,29.90,SE,135,0.0,0.0,79,0.00,CLR,,0.00,WeatherDisplay:10.37,2013-04-08 08:57:00,
2013-04-08 05:02:00,44.4,38.3,29.90,SE,135,0.0,0.0,79,0.00,CLR,,0.00,WeatherDisplay:10.37,2013-04-08 09:02:00,
2013-04-08 05:07:00,44.2,38.1,29.89,SE,135,0.0,0.0,79,0.00,CLR,,0.00,WeatherDisplay:10.37,2013-04-08 09:07:00,
2013-04-08 05:12:00,44.2,38.5,29.89,SE,135,0.0,0.0,80,0.00,CLR,,0.00,WeatherDisplay:10.37,2013-04-08 09:12:00,
2013-04-08 05:17:00,44.2,38.5,29.89,SE,135,0.0,0.0,80,0.00,CLR,,0.00,WeatherDisplay:10.37,2013-04-08 09:17:00,
2013-04-08 05:22:00,44.1,38.3,29.90,SE,135,0.0,0.0,80,0.00,CLR,,0.00,WeatherDisplay:10.37,2013-04-08 09:22:00,
2013-04-08 05:27:00,43.9,38.1,29.90,SE,135,0.0,0.0,80,0.00,CLR,,0.00,WeatherDisplay:10.37,2013-04-08 09:27:00,
2013-04-08 05:32:00,43.7,37.9,29.90,SE,135,0.0,0.5,80,0.00,CLR,,0.00,WeatherDisplay:10.37,2013-04-08 09:32:00,
2013-04-08 05:37:00,43.5,37.8,29.90,SE,135,0.0,0.0,80,0.00,CLR,,0.00,WeatherDisplay:10.37,2013-04-08 09:37:00,
2013-04-08 05:42:00,43.5,38.1,29.90,SE,135,0.5,0.5,81,0.00,CLR,,0.00,WeatherDisplay:10.37,2013-04-08 09:42:00,
2013-04-08 05:47:00,43.3,37.9,29.90,SE,135,0.0,0.0,81,0.00,CLR,,0.00,WeatherDisplay:10.37,2013-04-08 09:47:00,
2013-04-08 05:52:00,43.3,37.9,29.90,SE,135,0.0,0.0,81,0.00,CLR,,0.00,WeatherDisplay:10.37,2013-04-08 09:52:00,
2013-04-08 05:57:00,43.2,37.7,29.90,SE,135,0.0,0.0,81,0.00,CLR,,0.00,WeatherDisplay:10.37,2013-04-08 09:57:00,
2013-04-08 06:02:00,43.2,38.0,29.90,SE,135,0.0,0.0,82,0.00,CLR,,0.00,WeatherDisplay:10.37,2013-04-08 10:02:00,
2013-04-08 06:07:00,43.2,38.0,29.91,SE,135,0.0,0.0,82,0.00,CLR,,0.00,WeatherDisplay:10.37,2013-04-08 10:07:00,
2013-04-08 06:12:00,43.2,38.0,29.91,SE,135,0.0,0.0,82,0.00,CLR,,0.00,WeatherDisplay:10.37,2013-04-08 10:12:00,
2013-04-08 06:17:00,43.0,37.9,29.92,SE,135,0.0,0.0,82,0.00,CLR,,0.00,WeatherDisplay:10.37,2013-04-08 10:17:00,
2013-04-08 06:22:00,42.8,37.7,29.92,SE,135,0.0,0.0,82,0.00,CLR,,0.00,WeatherDisplay:10.37,2013-04-08 10:22:00,
2013-04-08 06:27:00,42.8,37.7,29.93,SE,135,0.0,0.0,82,0.00,CLR,,0.00,WeatherDisplay:10.37,2013-04-08 10:27:00,
2013-04-08 06:32:00,42.6,37.5,29.93,SE,135,0.0,0.0,82,0.00,CLR,,0.00,WeatherDisplay:10.37,2013-04-08 10:32:00,
2013-04-08 06:37:00,42.6,37.8,29.93,SE,135,0.2,0.2,83,0.00,CLR,,0.00,WeatherDisplay:10.37,2013-04-08 10:37:00,
2013-04-08 06:42:00,42.8,38.0,29.93,SE,135,0.0,0.0,83,0.00,CLR,,0.00,WeatherDisplay:10.37,2013-04-08 10:42:00,
2013-04-08 06:47:00,42.8,38.0,29.94,SE,135,0.0,0.0,83,0.00,CLR,,0.00,WeatherDisplay:10.37,2013-04-08 10:47:00,
2013-04-08 06:52:00,42.8,38.0,29.94,SE,135,0.0,0.0,83,0.00,CLR,,0.00,WeatherDisplay:10.37,2013-04-08 10:52:00,
2013-04-08 06:57:00,43.2,38.3,29.94,SE,135,0.0,0.0,83,0.00,CLR,,0.00,WeatherDisplay:10.37,2013-04-08 10:57:00,
2013-04-08 07:02:00,43.2,38.3,29.94,SE,135,0.0,0.0,83,0.00,CLR,,0.00,WeatherDisplay:10.37,2013-04-08 11:02:00,
2013-04-08 07:07:00,43.3,38.8,29.94,SE,135,0.0,0.0,84,0.00,CLR,,0.00,WeatherDisplay:10.37,2013-04-08 11:07:00,
2013-04-08 07:12:00,43.5,39.0,29.94,SE,135,0.0,0.0,84,0.00,CLR,,0.00,WeatherDisplay:10.37,2013-04-08 11:12:00,
2013-04-08 07:17:00,43.7,39.2,29.95,SE,135,0.0,0.0,84,0.00,CLR,,0.00,WeatherDisplay:10.37,2013-04-08 11:17:00,
2013-04-08 07:22:00,44.1,39.5,29.95,SE,135,0.0,0.0,84,0.00,CLR,,0.00,WeatherDisplay:10.37,2013-04-08 11:22:00,
2013-04-08 07:27:00,44.4,39.6,29.95,SE,135,0.0,0.0,83,0.00,CLR,,0.00,WeatherDisplay:10.37,2013-04-08 11:27:00,
2013-04-08 07:32:00,44.8,39.9,29.95,SE,135,0.0,0.0,83,0.00,CLR,,0.00,WeatherDisplay:10.37,2013-04-08 11:32:00,
2013-04-08 07:38:00,45.0,40.1,29.95,SE,135,0.0,0.0,83,0.00,CLR,,0.00,WeatherDisplay:10.37,2013-04-08 11:38:00,
2013-04-08 07:43:00,45.3,40.5,29.95,SE,135,0.0,0.0,83,0.00,CLR,,0.00,WeatherDisplay:10.37,2013-04-08 11:43:00,
2013-04-08 07:48:00,45.5,40.6,29.96,SE,135,0.0,0.0,83,0.00,CLR,,0.00,WeatherDisplay:10.37,2013-04-08 11:48:00,
2013-04-08 07:53:00,45.7,40.8,29.96,SE,135,0.0,0.0,83,0.00,CLR,,0.00,WeatherDisplay:10.37,2013-04-08 11:53:00,
2013-04-08 07:58:00,45.9,41.0,29.96,SW,225,0.0,0.0,83,0.00,CLR,,0.00,WeatherDisplay:10.37,2013-04-08 11:58:00,
2013-04-08 08:03:00,46.0,41.2,29.96,SE,135,0.0,0.0,83,0.00,CLR,,0.00,WeatherDisplay:10.37,2013-04-08 12:03:00,
2013-04-08 08:08:00,46.0,40.9,29.97,SE,135,0.0,0.0,82,0.00,CLR,,0.00,WeatherDisplay:10.37,2013-04-08 12:08:00,
2013-04-08 08:13:00,46.2,41.0,29.97,SE,135,0.2,0.2,82,0.00,CLR,,0.00,WeatherDisplay:10.37,2013-04-08 12:13:00,
2013-04-08 08:18:00,46.6,41.7,29.97,SE,135,0.0,0.0,83,0.00,CLR,,0.00,WeatherDisplay:10.37,2013-04-08 12:18:00,
2013-04-08 08:23:00,47.3,42.4,29.97,North,0,2.3,2.3,83,0.00,CLR,,0.00,WeatherDisplay:10.37,2013-04-08 12:23:00,
2013-04-08 08:28:00,47.7,42.4,29.97,NW,315,0.5,0.5,82,0.00,CLR,,0.00,WeatherDisplay:10.37,2013-04-08 12:28:00,
2013-04-08 08:34:00,48.0,42.5,29.96,East,90,0.2,0.2,81,0.00,CLR,,0.00,WeatherDisplay:10.37,2013-04-08 12:34:00,
2013-04-08 08:39:00,48.6,43.3,29.96,East,90,2.3,2.3,82,0.00,CLR,,0.00,WeatherDisplay:10.37,2013-04-08 12:39:00,
2013-04-08 08:44:00,48.7,43.5,29.96,NNE,22,1.1,1.1,82,0.00,CLR,,0.00,WeatherDisplay:10.37,2013-04-08 12:44:00,
2013-04-08 08:49:00,49.3,43.7,29.97,NNW,338,3.3,3.3,81,0.00,CLR,,0.00,WeatherDisplay:10.37,2013-04-08 12:49:00,
2013-04-08 08:54:00,49.3,43.4,29.97,NNW,338,2.3,2.3,80,0.00,CLR,,0.00,WeatherDisplay:10.37,2013-04-08 12:54:00,
2013-04-08 08:59:00,49.8,43.9,29.97,East,90,1.1,2.0,80,0.00,CLR,,0.00,WeatherDisplay:10.37,2013-04-08 12:59:00,
2013-04-08 09:05:00,50.2,43.9,29.96,East,90,2.3,2.3,79,0.00,CLR,,0.00,WeatherDisplay:10.37,2013-04-08 13:05:00,
2013-04-08 09:10:00,50.7,44.1,29.96,SE,135,2.3,2.3,78,0.00,CLR,,0.00,WeatherDisplay:10.37,2013-04-08 13:10:00,
2013-04-08 09:15:00,51.3,44.6,29.96,NE,45,1.8,1.8,78,0.00,CLR,,0.00,WeatherDisplay:10.37,2013-04-08 13:15:00,
2013-04-08 09:20:00,51.8,44.8,29.96,West,270,1.1,1.1,77,0.00,CLR,,0.00,WeatherDisplay:10.37,2013-04-08 13:20:00,
2013-04-08 09:25:00,52.5,44.5,29.96,ESE,112,2.3,2.3,74,0.00,CLR,,0.00,WeatherDisplay:10.37,2013-04-08 13:25:00,
2013-04-08 09:30:00,52.9,44.5,29.97,SW,225,1.1,1.1,73,0.00,CLR,,0.00,WeatherDisplay:10.37,2013-04-08 13:30:00,
2013-04-08 09:35:00,53.2,44.4,29.97,East,90,1.1,1.1,72,0.00,CLR,,0.00,WeatherDisplay:10.37,2013-04-08 13:35:00,
2013-04-08 09:40:00,53.6,44.8,29.98,NNW,338,1.1,1.1,72,0.00,CLR,,0.00,WeatherDisplay:10.37,2013-04-08 13:40:00,
2013-04-08 09:45:00,54.0,44.8,29.98,ENE,68,1.6,1.6,71,0.00,CLR,,0.00,WeatherDisplay:10.37,2013-04-08 13:45:00,
2013-04-08 09:50:00,54.5,44.5,29.98,WNW,292,1.1,1.1,69,0.00,CLR,,0.00,WeatherDisplay:10.37,2013-04-08 13:50:00,
2013-04-08 09:55:00,54.9,44.9,29.98,WNW,292,2.3,2.3,69,0.00,CLR,,0.00,WeatherDisplay:10.37,2013-04-08 13:55:00,
2013-04-08 10:00:00,55.0,45.1,29.98,SE,135,1.1,1.1,69,0.00,CLR,,0.00,WeatherDisplay:10.37,2013-04-08 14:00:00,
2013-04-08 10:05:00,55.2,44.8,29.98,ESE,112,0.0,1.1,68,0.00,CLR,,0.00,WeatherDisplay:10.37,2013-04-08 14:05:00,
2013-04-08 10:10:00,55.9,45.1,29.98,WSW,248,2.3,2.3,67,0.00,CLR,,0.00,WeatherDisplay:10.37,2013-04-08 14:10:00,
2013-04-08 10:15:00,56.5,45.3,29.98,NNE,22,2.3,2.3,66,0.00,CLR,,0.00,WeatherDisplay:10.37,2013-04-08 14:15:00,
2013-04-08 10:20:00,56.7,45.4,29.98,NNE,22,1.1,1.1,66,0.00,CLR,,0.00,WeatherDisplay:10.37,2013-04-08 14:20:00,
2013-04-08 10:25:00,57.2,45.1,29.98,East,90,1.1,1.1,64,0.00,CLR,,0.00,WeatherDisplay:10.37,2013-04-08 14:25:00,
2013-04-08 10:31:00,57.7,45.6,29.98,North,0,2.3,2.3,64,0.00,CLR,,0.00,WeatherDisplay:10.37,2013-04-08 14:31:00,
2013-04-08 10:36:00,58.3,45.3,29.98,SSW,202,2.3,2.3,62,0.00,CLR,,0.00,WeatherDisplay:10.37,2013-04-08 14:36:00,
2013-04-08 10:41:00,58.6,44.8,29.98,SE,135,2.3,0.0,60,0.00,CLR,,0.00,WeatherDisplay:10.37,2013-04-08 14:41:00,
2013-04-08 10:47:00,59.4,45.0,29.98,WSW,248,2.3,2.3,59,0.00,CLR,,0.00,WeatherDisplay:10.37,2013-04-08 14:47:00,
2013-04-08 10:52:00,59.7,44.0,29.98,WSW,248,4.7,4.7,56,0.00,CLR,,0.00,WeatherDisplay:10.37,2013-04-08 14:52:00,
2013-04-08 10:57:00,60.1,44.8,29.98,NE,45,2.4,2.4,57,0.00,CLR,,0.00,WeatherDisplay:10.37,2013-04-08 14:57:00,
2013-04-08 11:02:00,60.4,43.7,29.98,NNE,22,3.5,3.5,54,0.00,CLR,,0.00,WeatherDisplay:10.37,2013-04-08 15:02:00,
2013-04-08 11:07:00,61.0,45.2,29.98,NE,45,2.3,2.3,56,0.00,CLR,,0.00,WeatherDisplay:10.37,2013-04-08 15:07:00,
2013-04-08 11:12:00,61.5,44.7,29.98,NW,315,1.1,1.1,54,0.00,CLR,,0.00,WeatherDisplay:10.37,2013-04-08 15:12:00,
2013-04-08 11:17:00,62.1,44.2,29.98,North,0,2.3,2.3,52,0.00,CLR,,0.00,WeatherDisplay:10.37,2013-04-08 15:17:00,
2013-04-08 11:22:00,62.2,44.4,29.98,SW,225,2.4,2.4,52,0.00,CLR,,0.00,WeatherDisplay:10.37,2013-04-08 15:22:00,
2013-04-08 11:27:00,62.6,44.2,29.98,NW,315,2.3,2.3,51,0.00,CLR,,0.00,WeatherDisplay:10.37,2013-04-08 15:27:00,
2013-04-08 11:32:00,62.8,44.9,29.97,SE,135,1.1,1.1,52,0.00,CLR,,0.00,WeatherDisplay:10.37,2013-04-08 15:32:00,
2013-04-08 11:37:00,63.3,45.4,29.97,WSW,248,2.3,2.3,52,0.00,CLR,,0.00,WeatherDisplay:10.37,2013-04-08 15:37:00,
2013-04-08 11:42:00,63.7,45.2,29.97,SW,225,2.9,2.9,51,0.00,CLR,,0.00,WeatherDisplay:10.37,2013-04-08 15:42:00,
2013-04-08 11:48:00,63.9,44.9,29.97,WNW,292,1.1,1.1,50,0.00,CLR,,0.00,WeatherDisplay:10.37,2013-04-08 15:48:00,
2013-04-08 11:53:00,64.0,42.3,29.97,ENE,68,2.3,2.3,45,0.00,CLR,,0.00,WeatherDisplay:10.37,2013-04-08 15:53:00,
2013-04-08 11:58:00,64.6,43.9,29.97,ENE,68,3.5,3.5,47,0.00,CLR,,0.00,WeatherDisplay:10.37,2013-04-08 15:58:00,
2013-04-08 12:03:00,65.5,43.6,29.97,NNW,338,2.3,2.3,45,0.00,CLR,,0.00,WeatherDisplay:10.37,2013-04-08 16:03:00,
2013-04-08 12:08:00,65.8,42.7,29.97,NNE,22,4.6,4.6,43,0.00,CLR,,0.00,WeatherDisplay:10.37,2013-04-08 16:08:00,
2013-04-08 12:13:00,66.0,42.3,29.97,West,270,2.3,2.3,42,0.00,CLR,,0.00,WeatherDisplay:10.37,2013-04-08 16:13:00,
2013-04-08 12:18:00,66.4,43.2,29.97,North,0,3.5,3.5,43,0.00,CLR,,0.00,WeatherDisplay:10.37,2013-04-08 16:18:00,
2013-04-08 12:23:00,66.7,44.1,29.97,NW,315,2.0,2.0,44,0.00,CLR,,0.00,WeatherDisplay:10.37,2013-04-08 16:23:00,
2013-04-08 12:28:00,67.1,44.4,29.97,SE,135,3.5,3.5,44,0.00,CLR,,0.00,WeatherDisplay:10.37,2013-04-08 16:28:00,
2013-04-08 12:33:00,67.3,44.6,29.96,NE,45,2.3,0.0,44,0.00,CLR,,0.00,WeatherDisplay:10.37,2013-04-08 16:33:00,
2013-04-08 12:38:00,67.5,42.3,29.96,East,90,2.3,2.3,40,0.00,CLR,,0.00,WeatherDisplay:10.37,2013-04-08 16:38:00,
2013-04-08 12:43:00,67.5,42.3,29.96,East,90,1.1,1.1,40,0.00,CLR,,0.00,WeatherDisplay:10.37,2013-04-08 16:43:00,
2013-04-08 12:48:00,67.6,43.7,29.96,WNW,292,1.1,1.1,42,0.00,CLR,,0.00,WeatherDisplay:10.37,2013-04-08 16:48:00,
2013-04-08 12:53:00,68.4,45.0,29.96,ESE,112,3.5,3.5,43,0.00,CLR,,0.00,WeatherDisplay:10.37,2013-04-08 16:53:00,
2013-04-08 12:58:00,68.9,44.2,29.96,East,90,2.4,2.4,41,0.00,CLR,,0.00,WeatherDisplay:10.37,2013-04-08 16:58:00,
2013-04-08 13:03:00,68.9,42.2,29.95,East,90,4.6,4.6,38,0.00,CLR,,0.00,WeatherDisplay:10.37,2013-04-08 17:03:00,
2013-04-08 13:08:00,69.4,43.4,29.95,NNE,22,2.3,2.3,39,0.00,CLR,,0.00,WeatherDisplay:10.37,2013-04-08 17:08:00,
2013-04-08 13:13:00,70.2,44.0,29.95,SSE,158,3.5,3.5,39,0.00,CLR,,0.00,WeatherDisplay:10.37,2013-04-08 17:13:00,
2013-04-08 13:18:00,70.5,43.0,29.95,WSW,248,2.4,2.4,37,0.00,CLR,,0.00,WeatherDisplay:10.37,2013-04-08 17:18:00,
2013-04-08 13:23:00,70.9,43.3,29.95,SW,225,1.1,2.4,37,0.00,CLR,,0.00,WeatherDisplay:10.37,2013-04-08 17:23:00,
2013-04-08 13:28:00,71.4,42.3,29.95,SW,225,4.6,4.6,35,0.00,CLR,,0.00,WeatherDisplay:10.37,2013-04-08 17:28:00,
2013-04-08 13:33:00,71.8,44.1,29.94,NW,315,2.3,2.3,37,0.00,CLR,,0.00,WeatherDisplay:10.37,2013-04-08 17:33:00,
2013-04-08 13:38:00,72.5,44.7,29.94,West,270,2.3,2.3,37,0.00,CLR,,0.00,WeatherDisplay:10.37,2013-04-08 17:38:00,
2013-04-08 13:43:00,73.0,42.2,29.94,NE,45,2.3,2.3,33,0.00,CLR,,0.00,WeatherDisplay:10.37,2013-04-08 17:43:00,
2013-04-08 13:48:00,73.4,42.5,29.94,NNE,22,2.3,2.3,33,0.00,CLR,,0.00,WeatherDisplay:10.37,2013-04-08 17:48:00,
2013-04-08 13:54:00,73.6,44.2,29.94,NNE,22,2.3,2.3,35,0.00,CLR,,0.00,WeatherDisplay:10.37,2013-04-08 17:54:00,
2013-04-08 13:59:00,74.1,44.7,29.94,ESE,112,2.3,2.3,35,0.00,CLR,,0.00,WeatherDisplay:10.37,2013-04-08 17:59:00,
2013-04-08 14:04:00,74.3,44.9,29.94,SE,135,2.3,2.3,35,0.00,CLR,,0.00,WeatherDisplay:10.37,2013-04-08 18:04:00,
2013-04-08 14:09:00,73.8,45.1,29.93,NE,45,2.3,2.3,36,0.00,CLR,,0.00,WeatherDisplay:10.37,2013-04-08 18:09:00,
2013-04-08 14:14:00,72.9,45.1,29.93,ESE,112,1.1,1.1,37,0.00,CLR,,0.00,WeatherDisplay:10.37,2013-04-08 18:14:00,
2013-04-08 14:19:00,72.7,44.9,29.93,WNW,292,1.1,1.1,37,0.00,CLR,,0.00,WeatherDisplay:10.37,2013-04-08 18:19:00,
2013-04-08 14:24:00,72.3,43.1,29.93,NW,315,2.9,2.9,35,0.00,CLR,,0.00,WeatherDisplay:10.37,2013-04-08 18:24:00,
2013-04-08 14:29:00,72.0,43.5,29.93,NNE,22,2.3,2.3,36,0.00,CLR,,0.00,WeatherDisplay:10.37,2013-04-08 18:29:00,
2013-04-08 14:34:00,71.4,43.8,29.93,SW,225,2.3,2.3,37,0.00,CLR,,0.00,WeatherDisplay:10.37,2013-04-08 18:34:00,
2013-04-08 14:39:00,71.4,43.8,29.92,NE,45,1.1,1.1,37,0.00,CLR,,0.00,WeatherDisplay:10.37,2013-04-08 18:39:00,
2013-04-08 14:44:00,71.4,43.8,29.92,SSW,202,2.3,2.3,37,0.00,CLR,,0.00,WeatherDisplay:10.37,2013-04-08 18:44:00,
2013-04-08 14:49:00,71.6,43.9,29.92,ENE,68,2.3,2.3,37,0.00,CLR,,0.00,WeatherDisplay:10.37,2013-04-08 18:49:00,
2013-04-08 14:54:00,71.4,44.5,29.91,WSW,248,0.0,1.8,38,0.00,CLR,,0.00,WeatherDisplay:10.37,2013-04-08 18:54:00,
2013-04-08 14:59:00,71.6,44.6,29.91,West,270,3.5,3.5,38,0.00,CLR,,0.00,WeatherDisplay:10.37,2013-04-08 18:59:00,
2013-04-08 15:04:00,71.6,44.6,29.91,SE,135,2.3,2.3,38,0.00,CLR,,0.00,WeatherDisplay:10.37,2013-04-08 19:04:00,
2013-04-08 15:09:00,72.3,41.6,29.91,South,180,3.1,3.1,33,0.00,CLR,,0.00,WeatherDisplay:10.37,2013-04-08 19:09:00,
2013-04-08 15:14:00,72.5,42.5,29.91,SW,225,1.6,1.6,34,0.00,CLR,,0.00,WeatherDisplay:10.37,2013-04-08 19:14:00,
2013-04-08 15:19:00,73.0,43.0,29.91,East,90,1.6,1.6,34,0.00,CLR,,0.00,WeatherDisplay:10.37,2013-04-08 19:19:00,
2013-04-08 15:25:00,73.8,44.4,29.91,SE,135,3.5,3.5,35,0.00,CLR,,0.00,WeatherDisplay:10.37,2013-04-08 19:25:00,
2013-04-08 15:30:00,74.1,44.7,29.91,South,180,2.4,2.4,35,0.00,CLR,,0.00,WeatherDisplay:10.37,2013-04-08 19:30:00,
2013-04-08 15:35:00,74.3,44.9,29.90,ESE,112,2.3,2.3,35,0.00,CLR,,0.00,WeatherDisplay:10.37,2013-04-08 19:35:00,
2013-04-08 15:40:00,74.5,45.0,29.90,SE,135,2.3,2.3,35,0.00,CLR,,0.00,WeatherDisplay:10.37,2013-04-08 19:40:00,
2013-04-08 15:45:00,74.5,45.0,29.90,NE,45,2.3,2.3,35,0.00,CLR,,0.00,WeatherDisplay:10.37,2013-04-08 19:45:00,
2013-04-08 15:50:00,74.8,45.3,29.90,East,90,3.5,3.5,35,0.00,CLR,,0.00,WeatherDisplay:10.37,2013-04-08 19:50:00,
2013-04-08 15:55:00,74.8,44.6,29.90,ENE,68,2.3,2.3,34,0.00,CLR,,0.00,WeatherDisplay:10.37,2013-04-08 19:55:00,
2013-04-08 16:00:00,74.8,44.6,29.90,ESE,112,2.3,2.3,34,0.00,CLR,,0.00,WeatherDisplay:10.37,2013-04-08 20:00:00,
2013-04-08 16:05:00,74.8,45.3,29.90,ESE,112,3.5,3.5,35,0.00,CLR,,0.00,WeatherDisplay:10.37,2013-04-08 20:05:00,
2013-04-08 16:10:00,75.0,43.1,29.90,WSW,248,4.6,4.6,32,0.00,CLR,,0.00,WeatherDisplay:10.37,2013-04-08 20:10:00,
2013-04-08 16:15:00,75.0,44.7,29.90,SW,225,1.1,1.1,34,0.00,CLR,,0.00,WeatherDisplay:10.37,2013-04-08 20:15:00,
2013-04-08 16:20:00,74.8,44.6,29.90,SW,225,4.7,4.7,34,0.00,CLR,,0.00,WeatherDisplay:10.37,2013-04-08 20:20:00,
2013-04-08 16:25:00,74.8,44.6,29.90,SSW,202,2.4,2.4,34,0.00,CLR,,0.00,WeatherDisplay:10.37,2013-04-08 20:25:00,
2013-04-08 16:30:00,74.8,44.6,29.90,WSW,248,2.3,4.3,34,0.00,CLR,,0.00,WeatherDisplay:10.37,2013-04-08 20:30:00,
2013-04-08 16:35:00,74.7,44.4,29.89,WSW,248,4.6,4.6,34,0.00,CLR,,0.00,WeatherDisplay:10.37,2013-04-08 20:35:00,
2013-04-08 16:41:00,74.7,44.4,29.90,SSW,202,4.6,4.6,34,0.00,CLR,,0.00,WeatherDisplay:10.37,2013-04-08 20:41:00,
2013-04-08 16:46:00,74.7,44.4,29.90,West,270,4.6,4.6,34,0.00,CLR,,0.00,WeatherDisplay:10.37,2013-04-08 20:46:00,
2013-04-08 16:51:00,74.5,44.3,29.90,SE,135,3.6,3.6,34,0.00,CLR,,0.00,WeatherDisplay:10.37,2013-04-08 20:51:00,
2013-04-08 16:56:00,74.5,44.3,29.90,SSW,202,2.9,2.9,34,0.00,CLR,,0.00,WeatherDisplay:10.37,2013-04-08 20:56:00,
2013-04-08 17:01:00,74.3,44.1,29.89,SW,225,3.6,3.6,34,0.00,CLR,,0.00,WeatherDisplay:10.37,2013-04-08 21:01:00,
2013-04-08 17:06:00,74.3,43.3,29.89,WSW,248,1.1,1.1,33,0.00,CLR,,0.00,WeatherDisplay:10.37,2013-04-08 21:06:00,
2013-04-08 17:11:00,74.5,43.5,29.89,SSW,202,3.8,3.8,33,0.00,CLR,,0.00,WeatherDisplay:10.37,2013-04-08 21:11:00,
2013-04-08 17:16:00,74.5,44.3,29.90,SSW,202,6.0,6.0,34,0.00,CLR,,0.00,WeatherDisplay:10.37,2013-04-08 21:16:00,
2013-04-08 17:22:00,74.1,44.7,29.90,East,90,2.4,2.4,35,0.00,CLR,,0.00,WeatherDisplay:10.37,2013-04-08 21:22:00,
2013-04-08 17:27:00,73.8,45.9,29.90,East,90,1.6,1.6,37,0.00,CLR,,0.00,WeatherDisplay:10.37,2013-04-08 21:27:00,
2013-04-08 17:32:00,72.7,45.6,29.90,WSW,248,2.3,2.3,38,0.00,CLR,,0.00,WeatherDisplay:10.37,2013-04-08 21:32:00,
2013-04-08 17:37:00,71.8,44.8,29.91,ESE,112,3.5,3.5,38,0.00,CLR,,0.00,WeatherDisplay:10.37,2013-04-08 21:37:00,
2013-04-08 17:42:00,71.2,45.0,29.91,South,180,4.6,4.6,39,0.00,CLR,,0.00,WeatherDisplay:10.37,2013-04-08 21:42:00,
2013-04-08 17:47:00,70.9,45.3,29.91,SSE,158,3.5,3.5,40,0.00,CLR,,0.00,WeatherDisplay:10.37,2013-04-08 21:47:00,
2013-04-08 17:52:00,70.3,44.9,29.91,NW,315,3.5,3.5,40,0.00,CLR,,0.00,WeatherDisplay:10.37,2013-04-08 21:52:00,
2013-04-08 17:57:00,70.0,45.2,29.91,West,270,4.6,4.6,41,0.00,CLR,,0.00,WeatherDisplay:10.37,2013-04-08 21:57:00,
2013-04-08 18:02:00,69.8,45.0,29.91,East,90,1.1,1.1,41,0.00,CLR,,0.00,WeatherDisplay:10.37,2013-04-08 22:02:00,
2013-04-08 18:07:00,69.3,45.2,29.91,SW,225,2.3,2.3,42,0.00,CLR,,0.00,WeatherDisplay:10.37,2013-04-08 22:07:00,
2013-04-08 18:12:00,68.9,44.9,29.92,WSW,248,2.9,2.9,42,0.00,CLR,,0.00,WeatherDisplay:10.37,2013-04-08 22:12:00,
2013-04-08 18:17:00,68.4,44.4,29.92,SW,225,4.5,4.5,42,0.00,CLR,,0.00,WeatherDisplay:10.37,2013-04-08 22:17:00,
2013-04-08 18:22:00,67.8,43.9,29.92,ESE,112,1.1,2.6,42,0.00,CLR,,0.00,WeatherDisplay:10.37,2013-04-08 22:22:00,
2013-04-08 18:27:00,67.3,43.4,29.92,ENE,68,1.1,1.1,42,0.00,CLR,,0.00,WeatherDisplay:10.37,2013-04-08 22:27:00,
2013-04-08 18:32:00,66.6,43.4,29.92,SW,225,2.3,2.3,43,0.00,CLR,,0.00,WeatherDisplay:10.37,2013-04-08 22:32:00,
2013-04-08 18:37:00,66.0,42.9,29.92,SE,135,2.3,2.3,43,0.00,CLR,,0.00,WeatherDisplay:10.37,2013-04-08 22:37:00,
2013-04-08 18:42:00,65.7,43.1,29.91,South,180,4.7,4.7,44,0.00,CLR,,0.00,WeatherDisplay:10.37,2013-04-08 22:42:00,
2013-04-08 18:47:00,65.1,42.7,29.91,South,180,4.6,4.6,44,0.00,CLR,,0.00,WeatherDisplay:10.37,2013-04-08 22:47:00,
2013-04-08 18:52:00,64.8,42.9,29.92,SW,225,2.4,2.4,45,0.00,CLR,,0.00,WeatherDisplay:10.37,2013-04-08 22:52:00,
2013-04-08 18:57:00,64.4,42.6,29.92,SE,135,1.1,1.4,45,0.00,CLR,,0.00,WeatherDisplay:10.37,2013-04-08 22:57:00,
2013-04-08 19:03:00,64.2,42.4,29.92,SSE,158,1.4,1.4,45,0.00,CLR,,0.00,WeatherDisplay:10.37,2013-04-08 23:03:00,
2013-04-08 19:08:00,64.0,42.8,29.92,SSE,158,1.8,1.8,46,0.00,CLR,,0.00,WeatherDisplay:10.37,2013-04-08 23:08:00,
2013-04-08 19:13:00,63.7,42.5,29.93,SSE,158,2.3,2.3,46,0.00,CLR,,0.00,WeatherDisplay:10.37,2013-04-08 23:13:00,
2013-04-08 19:18:00,63.5,42.3,29.93,SW,225,2.3,2.3,46,0.00,CLR,,0.00,WeatherDisplay:10.37,2013-04-08 23:18:00,
2013-04-08 19:23:00,63.3,42.2,29.93,ESE,112,0.2,0.2,46,0.00,CLR,,0.00,WeatherDisplay:10.37,2013-04-08 23:23:00,
2013-04-08 19:28:00,63.1,42.0,29.92,SSE,158,0.5,0.5,46,0.00,CLR,,0.00,WeatherDisplay:10.37,2013-04-08 23:28:00,
2013-04-08 19:33:00,62.8,42.2,29.93,East,90,1.1,1.1,47,0.00,CLR,,0.00,WeatherDisplay:10.37,2013-04-08 23:33:00,
2013-04-08 19:38:00,62.6,42.1,29.92,ESE,112,1.1,1.1,47,0.00,CLR,,0.00,WeatherDisplay:10.37,2013-04-08 23:38:00,
2013-04-08 19:43:00,62.4,41.9,29.92,ESE,112,1.1,1.1,47,0.00,CLR,,0.00,WeatherDisplay:10.37,2013-04-08 23:43:00,
2013-04-08 19:48:00,62.4,41.9,29.92,ESE,112,1.1,1.1,47,0.00,CLR,,0.00,WeatherDisplay:10.37,2013-04-08 23:48:00,
2013-04-08 19:53:00,62.2,42.3,29.93,NE,45,0.0,0.0,48,0.00,CLR,,0.00,WeatherDisplay:10.37,2013-04-08 23:53:00,
2013-04-08 19:58:00,62.1,42.1,29.92,SSE,158,0.0,0.0,48,0.00,CLR,,0.00,WeatherDisplay:10.37,2013-04-08 23:58:00,
2013-04-08 20:03:00,61.9,42.0,29.92,SE,135,1.4,1.4,48,0.00,CLR,,0.00,WeatherDisplay:10.37,2013-04-09 00:03:00,
2013-04-08 20:08:00,61.5,42.2,29.92,WNW,292,1.1,1.1,49,0.00,CLR,,0.00,WeatherDisplay:10.37,2013-04-09 00:08:00,
2013-04-08 20:13:00,61.3,42.0,29.92,ESE,112,0.0,0.0,49,0.00,CLR,,0.00,WeatherDisplay:10.37,2013-04-09 00:13:00,
2013-04-08 20:18:00,61.2,42.4,29.92,East,90,1.1,1.1,50,0.00,CLR,,0.00,WeatherDisplay:10.37,2013-04-09 00:18:00,
2013-04-08 20:23:00,61.0,42.7,29.92,South,180,0.9,0.9,51,0.00,CLR,,0.00,WeatherDisplay:10.37,2013-04-09 00:23:00,
2013-04-08 20:28:00,60.8,43.1,29.93,ESE,112,0.7,0.7,52,0.00,CLR,,0.00,WeatherDisplay:10.37,2013-04-09 00:28:00,
2013-04-08 20:33:00,60.8,43.1,29.93,SSE,158,1.1,1.6,52,0.00,CLR,,0.00,WeatherDisplay:10.37,2013-04-09 00:33:00,
2013-04-08 20:38:00,60.6,43.4,29.93,SSW,202,1.1,1.1,53,0.00,CLR,,0.00,WeatherDisplay:10.37,2013-04-09 00:38:00,
2013-04-08 20:43:00,60.4,43.7,29.93,East,90,1.6,1.6,54,0.00,CLR,,0.00,WeatherDisplay:10.37,2013-04-09 00:43:00,
2013-04-08 20:48:00,60.1,43.4,29.93,WSW,248,0.2,0.2,54,0.00,CLR,,0.00,WeatherDisplay:10.37,2013-04-09 00:48:00,
2013-04-08 20:53:00,59.9,43.2,29.93,SE,135,1.1,1.1,54,0.00,CLR,,0.00,WeatherDisplay:10.37,2013-04-09 00:53:00,
2013-04-08 20:58:00,59.5,43.3,29.93,SE,135,2.3,2.3,55,0.00,CLR,,0.00,WeatherDisplay:10.37,2013-04-09 00:58:00,
2013-04-08 21:03:00,59.4,43.2,29.93,SE,135,2.3,2.3,55,0.00,CLR,,0.00,WeatherDisplay:10.37,2013-04-09 01:03:00,
2013-04-08 21:08:00,59.0,43.3,29.93,SSE,158,0.5,0.5,56,0.00,CLR,,0.00,WeatherDisplay:10.37,2013-04-09 01:08:00,
2013-04-08 21:13:00,59.0,43.3,29.94,East,90,0.2,0.2,56,0.00,CLR,,0.00,WeatherDisplay:10.37,2013-04-09 01:13:00,
2013-04-08 21:18:00,58.6,43.0,29.94,ESE,112,0.5,0.5,56,0.00,CLR,,0.00,WeatherDisplay:10.37,2013-04-09 01:18:00,
2013-04-08 21:23:00,58.6,43.0,29.94,ESE,112,0.0,0.0,56,0.00,CLR,,0.00,WeatherDisplay:10.37,2013-04-09 01:23:00,
2013-04-08 21:28:00,58.3,42.6,29.94,ESE,112,0.0,0.0,56,0.00,CLR,,0.00,WeatherDisplay:10.37,2013-04-09 01:28:00,
2013-04-08 21:33:00,58.1,43.4,29.94,ESE,112,0.5,0.5,58,0.00,CLR,,0.00,WeatherDisplay:10.37,2013-04-09 01:33:00,
2013-04-08 21:38:00,57.9,43.2,29.94,ESE,112,1.1,1.1,58,0.00,CLR,,0.00,WeatherDisplay:10.37,2013-04-09 01:38:00,
2013-04-08 21:43:00,57.9,43.2,29.93,ESE,112,1.1,1.1,58,0.00,CLR,,0.00,WeatherDisplay:10.37,2013-04-09 01:43:00,
2013-04-08 21:48:00,57.7,43.1,29.93,ESE,112,0.5,0.5,58,0.00,CLR,,0.00,WeatherDisplay:10.37,2013-04-09 01:48:00,
2013-04-08 21:53:00,57.6,44.6,29.91,SSE,158,1.1,1.1,62,0.00,CLR,,0.00,WeatherDisplay:10.37,2013-04-09 01:53:00,
2013-04-08 21:58:00,57.6,43.8,29.91,East,90,0.2,0.2,60,0.00,CLR,,0.00,WeatherDisplay:10.37,2013-04-09 01:58:00,
2013-04-08 22:03:00,57.6,43.8,29.92,SE,135,1.1,1.1,60,0.00,CLR,,0.00,WeatherDisplay:10.37,2013-04-09 02:03:00,
2013-04-08 22:08:00,57.4,44.0,29.93,SE,135,0.0,0.0,61,0.00,CLR,,0.00,WeatherDisplay:10.37,2013-04-09 02:08:00,
2013-04-08 22:13:00,57.2,43.4,29.93,SE,135,0.0,0.0,60,0.00,CLR,,0.00,WeatherDisplay:10.37,2013-04-09 02:13:00,
2013-04-08 22:18:00,57.2,43.4,29.93,SE,135,0.0,0.0,60,0.00,CLR,,0.00,WeatherDisplay:10.37,2013-04-09 02:18:00,
2013-04-08 22:23:00,57.2,43.4,29.93,SE,135,0.2,0.2,60,0.00,CLR,,0.00,WeatherDisplay:10.37,2013-04-09 02:23:00,
2013-04-08 22:28:00,57.0,43.3,29.93,SE,135,0.0,0.0,60,0.00,CLR,,0.00,WeatherDisplay:10.37,2013-04-09 02:28:00,
2013-04-08 22:33:00,56.7,43.4,29.93,SE,135,0.0,0.0,61,0.00,CLR,,0.00,WeatherDisplay:10.37,2013-04-09 02:33:00,
2013-04-08 22:38:00,56.5,43.2,29.93,SE,135,0.0,0.0,61,0.00,CLR,,0.00,WeatherDisplay:10.37,2013-04-09 02:38:00,
2013-04-08 22:43:00,56.5,43.2,29.93,SE,135,0.0,0.2,61,0.00,CLR,,0.00,WeatherDisplay:10.37,2013-04-09 02:43:00,
2013-04-08 22:48:00,56.3,43.4,29.93,SE,135,0.0,0.0,62,0.00,CLR,,0.00,WeatherDisplay:10.37,2013-04-09 02:48:00,
2013-04-08 22:53:00,56.1,43.3,29.93,SE,135,0.2,0.2,62,0.00,CLR,,0.00,WeatherDisplay:10.37,2013-04-09 02:53:00,
2013-04-08 22:58:00,56.1,43.3,29.92,SE,135,0.0,0.0,62,0.00,CLR,,0.00,WeatherDisplay:10.37,2013-04-09 02:58:00,
2013-04-08 23:03:00,55.9,43.5,29.92,SE,135,0.5,0.5,63,0.00,CLR,,0.00,WeatherDisplay:10.37,2013-04-09 03:03:00,
2013-04-08 23:08:00,55.9,43.9,29.92,SE,135,0.0,0.0,64,0.00,CLR,,0.00,WeatherDisplay:10.37,2013-04-09 03:08:00,
2013-04-08 23:13:00,55.9,43.9,29.92,SE,135,0.0,0.0,64,0.00,CLR,,0.00,WeatherDisplay:10.37,2013-04-09 03:13:00,
2013-04-08 23:19:00,55.9,43.9,29.91,SE,135,0.0,0.0,64,0.00,CLR,,0.00,WeatherDisplay:10.37,2013-04-09 03:19:00,
2013-04-08 23:24:00,55.8,43.8,29.91,SE,135,0.0,0.0,64,0.00,CLR,,0.00,WeatherDisplay:10.37,2013-04-09 03:24:00,
2013-04-08 23:29:00,55.8,43.8,29.91,SE,135,0.0,0.0,64,0.00,CLR,,0.00,WeatherDisplay:10.37,2013-04-09 03:29:00,
2013-04-08 23:34:00,55.8,43.8,29.91,SE,135,0.0,0.0,64,0.00,CLR,,0.00,WeatherDisplay:10.37,2013-04-09 03:34:00,
2013-04-08 23:39:00,55.6,43.6,29.91,SE,135,0.0,0.0,64,0.00,CLR,,0.00,WeatherDisplay:10.37,2013-04-09 03:39:00,
2013-04-08 23:44:00,55.4,43.4,29.91,SE,135,0.0,0.0,64,0.00,CLR,,0.00,WeatherDisplay:10.37,2013-04-09 03:44:00,
2013-04-08 23:49:00,55.4,43.8,29.91,SE,135,0.0,0.0,65,0.00,CLR,,0.00,WeatherDisplay:10.37,2013-04-09 03:49:00,
2013-04-08 23:55:00,55.4,44.2,29.91,SE,135,0.0,0.0,66,0.00,CLR,,0.00,WeatherDisplay:10.37,2013-04-09 03:55:00,